Location: Waco, TX
(31.5480°N, 97.1670°W)
Time: 13:26:36
(UTC-06:00)

ISS - Pass Details

Date: 10 January 2018
Orbit: 402 x 407 km, 51.6° (Epoch: 20 January)

Event Time Altitude Azimuth Distance (km) Brightness Sun altitude
Rises 23:51:06 0° 207° (SSW) 2,297 - -76.0°
Reaches altitude 10° 23:53:15 10° 199° (SSW) 1,443 - -76.3°
Maximum altitude 23:56:16 36° 130° (SE) 655 - -76.8°
Drops below altitude 10° 23:59:17 10° 62° (ENE) 1,452 - -77.2°
Sets 00:01:27 0° 54° (NE) 2,315 - -77.5°
